Location: Chena
(64.8152°N, 147.9227°W)
Time: 18:24:26
(UTC+00:00)

Vanguard 2 - Pass Details

Date: 04 March 2021
Orbit: 552 x 2938 km, 32.9° (Epoch: 11 April)

Event Time Altitude Azimuth Distance (km) Brightness Sun altitude
Exits shadow 14:27:54 - 212° (SSW) 5,814 11.5 -15.6°
Reaches altitude 10° 14:32:12 10° 199° (SSW) 5,390 11.5 -15.2°
Maximum altitude 14:40:36 16° 168° (SSE) 5,157 11.7 -14.3°
Drops below altitude 10° 14:49:29 10° 137° (SE) 5,762 12.3 -13.4°
Sets 14:56:25 0° 121° (ESE) 6,657 13.1 -12.7°
